Regional Weather Roundup
Issued by NWS Charleston, WV

Home | Current Version | Previous Version | Text Only | Print | Product List | Glossary Off
Versions: 1 2 3 4 5 6 7 8 9 10 11 12 13 14 15 16 17 18 19 20 21 22 23 24 25 26 27 28

000
ASUS41 KRLX 230010
RWRRLX
West Virginia Regional Weather Roundup
National Weather Service Charleston WV
800 PM EDT SAT JUL 22 2017

Note: "fair" indicates few or no clouds below 12,000 feet with no
significant weather and/or obstructions to visibility.

WVZ003-230100-
Northern Panhandle of West Virginia

CITY           SKY/WX    TMP DP  RH WIND       PRES   REMARKS
WHEELING       CLOUDY    72  69  90 CALM      29.82R
$$

WVZ009-230100-
Northwest West Virginia

CITY           SKY/WX    TMP DP  RH WIND       PRES   REMARKS
PARKERSBURG      N/A     72  71  97 CALM      29.85S FOG
$$

WVZ006-230100-
Western West Virginia

CITY           SKY/WX    TMP DP  RH WIND       PRES   REMARKS
HUNTINGTON       N/A     86  74  67 SW7       29.83R
$$

WVZ015-230100-
West Central West Virginia

CITY           SKY/WX    TMP DP  RH WIND       PRES   REMARKS
CHARLESTON     MOCLDY    87  74  64 SW9       29.84R
$$

WVZ022-031-230100-
North Central West Virginia

CITY           SKY/WX    TMP DP  RH WIND       PRES   REMARKS
CLARKSBURG     LGT RAIN  72  69  90 S6        29.86F
MORGANTOWN     CLOUDY    71  69  93 S5        29.87S
$$

WVZ025-035-042-045-230100-
Southern West Virginia

CITY           SKY/WX    TMP DP  RH WIND       PRES   REMARKS
BECKLEY          N/A     83  67  58 NW6       29.96R
LOGAN            N/A     86  73  66 CALM      29.90R
BLUEFIELD        N/A     82  65  56 W7        30.00R
LEWISBURG        N/A     83  67  58 CALM      29.94R HAZE
$$

WVZ047-230100-
Northern Mountains of West Virginia

CITY           SKY/WX    TMP DP  RH WIND       PRES   REMARKS
ELKINS         RAIN      70  66  87 NW8G18    29.95R FOG
$$

WVZ052-230100-
Eastern Panhandle of West Virginia

CITY           SKY/WX    TMP DP  RH WIND       PRES   REMARKS
MARTINSBURG      N/A     72  70  93 S3        29.80R
PETERSBURG       N/A     73  73  97 CALM      29.87R
$$




USA.gov is the U.S. government's official web portal to all federal, state and local government web resources and services.